TimeEDT,TemperatureF,Dew PointF,Humidity,Sea Level PressureIn,VisibilityMPH,Wind Direction,Wind SpeedMPH,Gust SpeedMPH,PrecipitationIn,Events,Conditions,WindDirDegrees,DateUTC
12:51 AM,71.1,70.0,96,29.84,10.0,WNW,3.5,-,N/A,,Overcast,300,2013-08-02 04:51:00
1:18 AM,71.6,69.8,94,29.83,8.0,West,6.9,-,0.00,,Overcast,280,2013-08-02 05:18:00
1:51 AM,70.0,69.1,97,29.82,7.0,Calm,Calm,-,0.00,,Overcast,0,2013-08-02 05:51:00
1:58 AM,69.8,68.0,94,29.81,7.0,NW,5.8,-,N/A,,Scattered Clouds,310,2013-08-02 05:58:00
2:51 AM,69.1,66.9,93,29.80,6.0,Calm,Calm,-,N/A,,Mostly Cloudy,0,2013-08-02 06:51:00
3:51 AM,69.1,66.9,93,29.81,6.0,West,4.6,-,N/A,,Mostly Cloudy,270,2013-08-02 07:51:00
4:51 AM,68.0,66.9,96,29.82,5.0,West,3.5,-,N/A,,Scattered Clouds,260,2013-08-02 08:51:00
5:51 AM,66.9,66.0,97,29.84,7.0,West,4.6,-,N/A,,Partly Cloudy,280,2013-08-02 09:51:00
6:51 AM,68.0,66.0,93,29.87,9.0,WSW,5.8,-,N/A,,Partly Cloudy,240,2013-08-02 10:51:00
7:51 AM,71.1,64.0,78,29.88,10.0,NW,4.6,-,N/A,,Partly Cloudy,310,2013-08-02 11:51:00
8:51 AM,75.0,61.0,62,29.89,10.0,NW,8.1,-,N/A,,Partly Cloudy,320,2013-08-02 12:51:00
9:51 AM,77.0,63.0,62,29.90,10.0,West,6.9,-,N/A,,Scattered Clouds,280,2013-08-02 13:51:00
10:51 AM,80.1,63.0,56,29.91,10.0,WNW,8.1,-,N/A,,Scattered Clouds,300,2013-08-02 14:51:00
11:51 AM,81.0,60.1,49,29.91,10.0,West,5.8,-,N/A,,Scattered Clouds,260,2013-08-02 15:51:00
12:51 PM,82.9,60.1,46,29.90,10.0,West,13.8,-,N/A,,Scattered Clouds,260,2013-08-02 16:51:00
1:51 PM,84.0,60.1,44,29.89,10.0,WSW,11.5,17.3,N/A,,Mostly Cloudy,240,2013-08-02 17:51:00
2:51 PM,84.9,59.0,41,29.88,10.0,WSW,15.0,20.7,N/A,,Mostly Cloudy,240,2013-08-02 18:51:00
3:51 PM,86.0,57.0,37,29.87,10.0,WSW,18.4,23.0,N/A,,Mostly Cloudy,240,2013-08-02 19:51:00
4:51 PM,84.0,55.9,38,29.88,10.0,WSW,18.4,25.3,N/A,,Mostly Cloudy,250,2013-08-02 20:51:00
5:51 PM,82.9,57.0,41,29.88,10.0,WSW,16.1,23.0,N/A,,Mostly Cloudy,250,2013-08-02 21:51:00
6:51 PM,82.0,57.9,44,29.86,10.0,WSW,11.5,-,N/A,,Mostly Cloudy,240,2013-08-02 22:51:00
7:51 PM,81.0,59.0,47,29.88,10.0,West,6.9,-,N/A,,Mostly Cloudy,260,2013-08-02 23:51:00
8:51 PM,79.0,61.0,54,29.89,10.0,SW,8.1,-,N/A,,Mostly Cloudy,230,2013-08-03 00:51:00
9:51 PM,79.0,62.1,56,29.91,10.0,WSW,12.7,20.7,N/A,,Mostly Cloudy,250,2013-08-03 01:51:00
10:51 PM,77.0,61.0,58,29.92,10.0,WSW,9.2,-,N/A,,Mostly Cloudy,240,2013-08-03 02:51:00
11:51 PM,75.9,60.1,58,29.92,10.0,WSW,6.9,-,N/A,,Mostly Cloudy,240,2013-08-03 03:51:00